Location: Recife
(8.0585°S, 34.8848°W)
Time: 06:13:35
(UTC-03:00)

Vanguard 3 - Pass Details

Date: 21 April 2026
Orbit: 507 x 3205 km, 33.4° (Epoch: 13 May)

Event Time Altitude Azimuth Distance (km) Brightness Sun altitude
Rises 08:50:04 0° 258° (WSW) 5,094 10.8 48.1°
Reaches altitude 10° 08:53:39 10° 247° (WSW) 4,476 10.6 48.9°
Maximum altitude 09:04:58 31° 189° (S) 3,979 10.7 51.3°
Drops below altitude 10° 09:20:28 10° 134° (SE) 6,092 11.8 54.5°
Sets 09:26:34 0° 124° (SE) 7,156 12.1 55.8°
